Hourly Data Report for May 31, 2021

ATIKOKAN (AUT)
ONTARIO
Current Station Operator: ECCC - MSC

48°45'40.000" N
91°37'41.000" W
389.30 m
6020LPQ
71747
WCH

Download Data

Hourly Data (May 2021)
Hourly Data Report for May 31, 2021
TIME
LST
Temp Definition
°C
Dew Point Definition
°C
Rel Hum Definition
%
Precip. Amount Definition
mm

Wind Dir Definition
10's deg

Wind Spd Definition
km/h
Visibility Definition
km
Stn Press Definition
kPa
Hmdx Definition


Wind Chill Definition


Weather Definition


00:00 6.5 6.2 98 0.0   0   97.23     LegendNANA
01:00 5.3 5.0 98 0.0 4 4   97.21     LegendNANA
02:00 4.4 4.1 98 0.0 36 2   97.25     LegendNANA
03:00 4.6 4.4 99 0.0   0   97.26     LegendNANA
04:00 4.7 4.5 99 0.0 0 1   97.29     LegendNANA
05:00 5.1 4.9 99 0.0 0 1   97.32     LegendNANA
06:00 6.8 6.7 99 0.0 6 1   97.35     LegendNANA
07:00 8.8 8.7 99 0.0 10 2   97.37     LegendNANA
08:00 12.1 9.9 87 0.0 17 1   97.37     LegendNANA
09:00 16.9 10.3 65 0.0 36 4   97.36     LegendNANA
10:00 17.2 6.9 51 0.0 28 6   97.35     LegendNANA
11:00 19.3 7.5 46 0.0 35 7   97.32     LegendNANA
12:00 19.7 6.1 41 0.0 30 8   97.32     LegendNANA
13:00 20.6 6.3 39 0.0 34 8   97.30     LegendNANA
14:00 20.6 4.4 35 0.0 28 7   97.28     LegendNANA
15:00 21.3 4.5 33 0.0 3 8   97.26     LegendNANA
16:00 21.2 4.2 33 0.0 31 5   97.26     LegendNANA
17:00 21.4 5.6 36 0.0 27 6   97.25     LegendNANA
18:00 20.9 5.3 36 0.0 31 5   97.24     LegendNANA
19:00 19.8 6.4 42 0.0 27 4   97.25     LegendNANA
20:00 13.9 7.5 66 0.0 0 1   97.28     LegendNANA
21:00 11.2 8.3 82 0.0   0   97.34     LegendNANA
22:00 10.5 8.9 90 0.0   0   97.36     LegendNANA
23:00 9.2 8.0 92 0.0   0   97.38     LegendNANA

Notes on Data Quality.

Legend

  • E = Estimated
  • M = Missing
  • NA = Not Available*
  • [empty] = Indicates an unobserved value
Date modified: